[[{"header":{"parameterUnit":"m.s-1","parameterCategory":1,"la1":30.2991,"la2":30.254,"lo1":-89.0895,"lo2":-89.0444,"dy":0.0017,"dx":0.0017,"nx":28,"ny":28,"refTime":"2024-05-19T21:00:00:Z","depth":0,"parameterNumber":2,"parameterNumberName":"U-component_of_WINDS"},"data":[0,0,0,0,0,0,0,0,0,0,0,0,0,0,0,0,0,0,0,0,0,0,0,0,0,0,0,0,0,0,0,0,0,0,0,0,0,0,0,0,0,0,0,0,0,0,0,0,0,0,0,0,0,0,0,0,0,0,0.6761,0.6762,0,0.6844,0.6844,0.6845,0.6865,0.6864,0.6864,0.6863,0.6949,0.6951,0.6954,0,0,0,0,0,0,0,0,0,0,0,0,0,0.6618,0.662,0.6761,0.6762,0.6763,0.6843,0.6845,0.6846,0.6865,0.6864,0.6864,0.6863,0.6948,0.6951,0.6954,0,0,0,0,0,0,0,0,0,0,0,0,0,0.6688,0.6621,0.6761,0.6782,0.6785,0.6843,0.6845,0.6846,0.6865,0.6864,0.6864,0.6863,0.6946,0.6951,0.6955,0.6997,0,0,0.6967,0.6969,0,0,0,0,0,0,0,0,0.6684,0.6693,0.6778,0.6781,0.6784,0.6843,0.6825,0.6897,0.6865,0.6835,0.6863,0.6862,0.6914,0.6921,0.6938,0.7001,0.7005,0.6968,0.697,0.6972,0.6973,0,0,0,0,0,0,0,0.6679,0.669,0.6793,0.6779,0.6783,0.6787,0.6796,0.6839,0.6878,0.6837,0.6839,0.6849,0.6916,0.6934,0.694,0.7006,0.6968,0.6971,0.6974,0.6976,0.7106,0.7107,0,0,0,0,0,0,0.6671,0.6686,0.6791,0.6796,0.6731,0.679,0.6801,0.6825,0.6878,0.6885,0.6849,0.6849,0.6927,0.6936,0.6944,0.6995,0.6972,0.6976,0.6978,0.7105,0.7106,0.7107,0,0,0,0,0,0,0.6667,0.668,0.6788,0.6741,0.6755,0.6794,0.6821,0.6827,0.6846,0.6887,0.6894,0.6861,0.6927,0.6938,0.6983,0.6999,0.6978,0.6982,0.7104,0.7105,0.7106,0.71,0,0,0,0,0,0,0.6663,0.6679,0.6696,0.6742,0.6758,0.6826,0.6822,0.6829,0.6853,0.6854,0.69,0.6907,0.6927,0.6977,0.6987,0.7004,0.6985,0.7102,0.7104,0.7106,0.7099,0.7101,0.7103,0,0,0,0,0,0.6658,0.6691,0.6697,0.6709,0.678,0.6827,0.6836,0.686,0.6854,0.6871,0.6897,0.6905,0.6995,0.6981,0.6993,0.7012,0.7102,0.7104,0.7106,0.7099,0.7101,0.7103,0,0,0,0,0,0,0.6647,0.6698,0.6704,0.6753,0.6786,0.683,0.6853,0.6862,0.6897,0.6896,0.6923,0.6933,0.6977,0.6999,0.6982,0.7054,0.7048,0.7053,0.7038,0.7041,0.7043,0.7037,0.6988,0,0,0,0,0,0.665,0.6684,0.6727,0.6766,0.6782,0.6814,0.6836,0.6851,0.6885,0.6899,0.6929,0.6962,0.6997,0.7021,0.7056,0.7102,0.7112,0.7121,0.7122,0.7124,0.7128,0.7152,0.7156,0.7114,0.7114,0.7114,0,0,0.6657,0.6689,0.6709,0.6765,0.6791,0.6826,0.6826,0.6863,0.6888,0.6905,0.6949,0.6972,0.7011,0.7056,0.7078,0.7076,0.7141,0.7127,0.7127,0.713,0.7154,0.7158,0.7162,0.7115,0.7115,0.7115,0,0,0.6687,0.6716,0.675,0.6777,0.6817,0.6838,0.6846,0.6889,0.6905,0.6949,0.6962,0.6992,0.7054,0.708,0.7102,0.7139,0.7148,0.715,0.716,0.7183,0.7187,0.719,0.7202,0.7206,0.7153,0.7153,0.7153,0,0.6691,0.6744,0.6767,0.6803,0.6826,0.6842,0.6876,0.6901,0.6951,0.6966,0.6963,0.7039,0.7066,0.7117,0.7126,0.7143,0.7153,0.7145,0.7184,0.7188,0.7191,0.7203,0.7207,0.7153,0.7153,0.7153,0.7153,0,0.6745,0.6781,0.6805,0.6851,0.6877,0.6912,0.694,0.6963,0.6975,0.6996,0.704,0.7073,0.7114,0.7128,0.714,0.718,0.7177,0.7179,0.7173,0.7194,0.7206,0.7211,0.7153,0.7153,0.7153,0.7153,0,0,0.6772,0.683,0.6838,0.6859,0.6903,0.6931,0.6966,0.7006,0.7024,0.7058,0.7087,0.7137,0.7138,0.7162,0.7178,0.7198,0.7224,0.7197,0.7198,0.72,0.7268,0.7266,0.7271,0.7229,0.723,0.7231,0.7264,0,0.6807,0.6871,0.6891,0.6943,0.6976,0.699,0.702,0.705,0.707,0.71,0.7122,0.7157,0.7157,0.7171,0.7192,0.7216,0.7238,0.7214,0.7256,0.7257,0.7246,0.7277,0.7276,0.7306,0.7269,0.727,0.7271,0,0.6857,0.689,0.6945,0.6984,0.6998,0.7025,0.7062,0.7091,0.7124,0.7137,0.7163,0.7176,0.7212,0.7204,0.7253,0.7236,0.7254,0.7268,0.727,0.7275,0.7265,0.7282,0.7316,0.7321,0.7278,0.7278,0.7277,0,0.687,0.6928,0.6968,0.6985,0.7031,0.7049,0.707,0.7102,0.7124,0.7156,0.717,0.7206,0.7226,0.7253,0.7275,0.7268,0.7322,0.7316,0.7333,0.7332,0.7344,0.7343,0.7381,0.7356,0.7356,0.7356,0.7356,0,0.6907,0.6939,0.6974,0.6999,0.7035,0.7058,0.7093,0.7114,0.7143,0.7171,0.7186,0.7212,0.7239,0.7269,0.7286,0.7323,0.7332,0.7343,0.7347,0.7342,0.734,0.7354,0.7352,0.7357,0.7357,0.7357,0.7356,0,0.6927,0.6952,0.6996,0.7035,0.7046,0.7071,0.7105,0.7128,0.7148,0.7183,0.7193,0.7224,0.7259,0.7283,0.7329,0.734,0.738,0.7384,0.7368,0.737,0.7386,0.7383,0.7433,0.7441,0.7412,0.7412,0.7412,0,0.6949,0.6974,0.7016,0.7035,0.7055,0.7087,0.7109,0.7132,0.7154,0.7193,0.7212,0.7247,0.7277,0.7332,0.7359,0.7393,0.7398,0.7413,0.7403,0.7396,0.7397,0.7395,0.7397,0.7414,0.7414,0.7415,0.7415,0,0.6984,0.6994,0.7026,0.706,0.7086,0.7115,0.7143,0.7158,0.7186,0.721,0.7246,0.7269,0.7314,0.7349,0.7385,0.7405,0.7414,0.7417,0.7423,0.7417,0.7407,0.7412,0.7372,0.7416,0.7416,0.7416,0.7416,0.7416,0.7006,0.7028,0.706,0.7094,0.7118,0.7143,0.7167,0.7189,0.7219,0.7258,0.7269,0.7306,0.7337,0.7386,0.7407,0.7435,0.7434,0.7442,0.7444,0.7446,0.7445,0.7402,0.7442,0.7442,0.7442,0.7442,0.7442,0,0.7041,0.7062,0.7092,0.7131,0.7157,0.7163,0.7194,0.7216,0.7248,0.7276,0.7304,0.7344,0.7377,0.7406,0.744,0.7457,0.7462,0.7465,0.7464,0.7468,0.7445,0.7436,0.7461,0.7461,0.7461,0.7461,0.7461,0.746,0.7062,0.71,0.7114,0.7163,0.7183,0.7219,0.7236,0.726,0.7282,0.7326,0.7353,0.7371,0.7399,0.7435,0.7465,0.7473,0.7484,0.7487,0.7495,0.7472,0.747,0.7468,0.746,0.7489,0.7489,0.7516,0.7516,0.7516]},{"header":{"parameterUnit":"m.s-1","parameterCategory":1,"la1":30.2991,"la2":30.254,"lo1":-89.0895,"lo2":-89.0444,"dy":0.0017,"dx":0.0017,"nx":28,"ny":28,"refTime":"2024-05-19T21:00:00:Z","depth":0,"parameterNumber":3,"parameterNumberName":"V-component_of_WINDS"},"data":[0,0,0,0,0,0,0,0,0,0,0,0,0,0,0,0,0,0,0,0,0,0,0,0,0,0,0,0,0,0,0,0,0,0,0,0,0,0,0,0,0,0,0,0,0,0,0,0,0,0,0,0,0,0,0,0,0,0,3.7452,3.7451,0,3.7389,3.7388,3.7388,3.7279,3.7277,3.7275,3.7273,3.721,3.721,3.721,0,0,0,0,0,0,0,0,0,0,0,0,0,3.7478,3.7478,3.7452,3.7451,3.745,3.7389,3.7388,3.7388,3.7279,3.7277,3.7274,3.7272,3.7209,3.721,3.721,0,0,0,0,0,0,0,0,0,0,0,0,0,3.7446,3.7478,3.7452,3.7389,3.7383,3.7389,3.7388,3.7387,3.728,3.7277,3.7274,3.7271,3.7209,3.721,3.721,3.7274,0,0,3.7211,3.7211,0,0,0,0,0,0,0,0,3.7448,3.7445,3.7399,3.7393,3.7386,3.7339,3.7374,3.7349,3.7281,3.7319,3.7273,3.7269,3.7255,3.7251,3.7246,3.7271,3.7268,3.7211,3.7211,3.7211,3.7212,0,0,0,0,0,0,0,3.745,3.7447,3.7427,3.7399,3.7391,3.7364,3.7356,3.7369,3.7305,3.7315,3.7307,3.7301,3.7251,3.7246,3.7244,3.7267,3.7211,3.7211,3.7212,3.7212,3.7338,3.7341,0,0,0,0,0,0,3.7462,3.745,3.7429,3.7425,3.741,3.7366,3.7357,3.7357,3.7305,3.7294,3.7304,3.7296,3.7247,3.7244,3.7242,3.7311,3.7211,3.7212,3.7212,3.7335,3.7339,3.7342,0,0,0,0,0,0,3.7463,3.7461,3.7432,3.7435,3.7429,3.7369,3.737,3.7358,3.7353,3.7296,3.7284,3.7311,3.7245,3.7241,3.7266,3.7307,3.7212,3.7212,3.7331,3.7336,3.734,3.7452,0,0,0,0,0,0,3.7464,3.7462,3.7486,3.7437,3.743,3.7458,3.7372,3.7358,3.7353,3.7343,3.7299,3.7289,3.7242,3.7266,3.7266,3.7306,3.7212,3.7327,3.7333,3.7339,3.7444,3.746,3.7473,0,0,0,0,0,3.7465,3.752,3.7488,3.7486,3.7458,3.746,3.7456,3.7401,3.7357,3.738,3.7344,3.7291,3.7303,3.7269,3.7269,3.731,3.7324,3.7331,3.7338,3.7438,3.7457,3.7473,0,0,0,0,0,0,3.7577,3.7513,3.7476,3.7517,3.7495,3.7442,3.747,3.7423,3.7413,3.7404,3.7335,3.7326,3.736,3.7337,3.7301,3.7367,3.7305,3.7312,3.7381,3.7399,3.7413,3.7418,3.7213,0,0,0,0,0,3.7606,3.7613,3.7557,3.7598,3.7589,3.7532,3.753,3.7489,3.7464,3.7454,3.7419,3.7397,3.7395,3.7395,3.7391,3.744,3.7429,3.7468,3.7482,3.7495,3.7502,3.7524,3.7541,3.7365,3.7365,3.7365,0,0,3.7667,3.7633,3.7641,3.762,3.7598,3.7606,3.7524,3.7537,3.7543,3.7456,3.7477,3.7451,3.7421,3.7458,3.7472,3.744,3.7547,3.7504,3.7514,3.7514,3.7533,3.755,3.7565,3.737,3.7369,3.7368,0,0,3.7781,3.7757,3.7788,3.7767,3.7735,3.7696,3.7704,3.7657,3.7636,3.7656,3.7591,3.7596,3.7595,3.7576,3.7566,3.7672,3.7622,3.7673,3.7748,3.7771,3.7785,3.7797,3.7834,3.7848,3.768,3.768,3.768,0,3.7861,3.7871,3.781,3.7826,3.7818,3.7739,3.777,3.7753,3.7721,3.7717,3.7681,3.7677,3.7651,3.7682,3.7708,3.7703,3.7708,3.7677,3.7788,3.7799,3.781,3.7844,3.7858,3.7686,3.7686,3.7685,3.7684,0,3.797,3.7978,3.8007,3.7977,3.7972,3.7996,3.7938,3.794,3.7899,3.7864,3.7884,3.7851,3.7837,3.7841,3.7802,3.7866,3.7847,3.7801,3.7737,3.7834,3.7864,3.7877,3.7695,3.7693,3.7691,3.769,0,0,3.8154,3.8089,3.8101,3.8086,3.8043,3.8048,3.8068,3.8054,3.8057,3.8037,3.8051,3.8051,3.8008,3.7997,3.7954,3.7974,3.8059,3.7925,3.7923,3.795,3.8126,3.8161,3.8177,3.8025,3.8027,3.8029,3.8128,0,3.826,3.8289,3.8234,3.8276,3.8282,3.8207,3.8223,3.8199,3.8166,3.8166,3.813,3.8131,3.8073,3.8066,3.8083,3.8045,3.8093,3.8037,3.8037,3.8038,3.8047,3.8193,3.823,3.8325,3.814,3.8142,3.8143,0,3.8387,3.8372,3.8416,3.8369,3.8369,3.8386,3.8368,3.8369,3.8339,3.8314,3.8301,3.825,3.8265,3.8204,3.8222,3.8186,3.8182,3.8164,3.8166,3.8164,3.8096,3.8194,3.8354,3.8368,3.8162,3.816,3.8159,0,3.8516,3.8507,3.8531,3.8521,3.8468,3.8481,3.8459,3.8426,3.8421,3.8405,3.8401,3.8388,3.838,3.837,3.8317,3.8277,3.8342,3.8276,3.8321,3.8322,3.8338,3.8338,3.8499,3.8337,3.8337,3.8336,3.8336,0,3.8639,3.8668,3.8588,3.8604,3.8633,3.8569,3.8601,3.8571,3.8542,3.855,3.8484,3.8492,3.8421,3.8421,3.8379,3.8401,3.8398,3.8377,3.8366,3.8383,3.8386,3.838,3.8372,3.834,3.8339,3.8339,3.8338,0,3.8788,3.8736,3.8757,3.8705,3.8692,3.8716,3.8671,3.8682,3.8645,3.8655,3.8653,3.8595,3.8591,3.8537,3.8522,3.8494,3.8532,3.8508,3.8542,3.8534,3.8581,3.8577,3.8744,3.8762,3.859,3.8591,3.8593,0,3.887,3.889,3.884,3.884,3.8821,3.8822,3.8816,3.8753,3.875,3.8716,3.8732,3.8723,3.8712,3.871,3.8666,3.8654,3.8629,3.8688,3.8627,3.8643,3.8629,3.8628,3.8629,3.8702,3.8704,3.8706,3.8707,0,3.9021,3.8993,3.8987,3.8972,3.8967,3.8952,3.8932,3.8936,3.8867,3.8866,3.8861,3.8853,3.8837,3.8829,3.8809,3.8786,3.8735,3.8727,3.8736,3.8754,3.8772,3.8762,3.8577,3.8723,3.8721,3.872,3.8719,3.8719,3.9138,3.9152,3.9118,3.9113,3.9092,3.9075,3.9083,3.9045,3.9041,3.9023,3.8986,3.8987,3.8955,3.8922,3.8903,3.8902,3.8872,3.8886,3.8889,3.8894,3.8903,3.8773,3.8898,3.8898,3.8897,3.8897,3.8897,0,3.9284,3.9258,3.9254,3.9229,3.9225,3.9177,3.9153,3.9152,3.9154,3.9128,3.9119,3.9113,3.9104,3.9059,3.9045,3.9053,3.9029,3.9051,3.905,3.9045,3.8931,3.8924,3.9071,3.9071,3.9071,3.9071,3.9071,3.9071,3.936,3.9381,3.935,3.9359,3.9332,3.9333,3.9323,3.9307,3.9286,3.9282,3.9274,3.9245,3.921,3.9193,3.9182,3.9169,3.9167,3.9197,3.9176,3.907,3.9053,3.9037,3.903,3.9197,3.9197,3.9289,3.929,3.9291]}]]